Terug naar catalogus

STARLINK-35527

ActiefCommunicatieVLEO
NORAD 66092·PAYLOAD·🇺🇸 United States

Gelanceerd Oct 19, 2025 vanaf Vandenberg Space Force Base

Loading…

Volgende Passages (komende 24 uur)

TLE

VersSource: CelesTrak SupGP

Epoch: Sep 15, 2026, 04:18 UTC

1 66092C 25236G   26258.17965278 -.00002458  00000+0 -72608-4 0  2584
2 66092  53.1584 300.2389 0001272  85.4254 336.0734 15.34399761    11

Volg STARLINK-35527 in realtime met AllMySat

Download on the App Store